"Pseudo-MPEC" for P10U8Cl

Created 2019 Nov 13 10:07:11 UT using Find_Orb

Click here for an explanation of pseudo-MPECs

 
 Astrometry: 
     P10U8Cl  C2019 11 044\YAstrometry.)0)KV%QUWp`h2kyl\OK/w#D;7Nyc8\5nQEKI(sF51
     P10U8Cl  C2019 11 04:J,_JRvS#+P[)EL0MMebYredacted;$nXOq21k\Qf,)b_`GiAQhHF51
     P10U8Cl  C2019 11 04;;Nclickhj+9ISKhereRforJ^dodexplanationFF*,)lEjnhey0F51
     P10U8Cl KC2019 11 05.36682 01 59 34.79 +20 23 15.1    ~B5A7 21.8 RoNEOCP691
     P10U8Cl KC2019 11 05.38029 01 59 34.72 +20 23 05.1    ~B5A7 21.7 RoNEOCP691

Station data:
(691) Steward Observatory, Kitt Peak - Spacewatch  (N31.962174 W111.600327)
   US/Arizona.  Observer J. V. Scotti. 0.9-m f/3 reflector + CCD.
(F51) Pan-STARRS 1, Haleakala  (N20.707235 W156.255910)  US/Hawaii.
   Observers N. Primak, A. Schultz, S. Watters, J. Thiel, T. Goggia. Measurer
   PS1 Science Consortium. 1.8-m Ritchey-Chrétien + CCD.

Orbital elements:  P10U8Cl
   Perihelion 2019 Nov 11.911049 +/- 53.2 TT = 21:51:54 (JD 2458799.411049)
Epoch 2019 Nov  5.0 TT = JDT 2458792.5   Earth MOID: 0.4725   Ma: 0.0197
M 358.05697373 +/- 8                (J2000 ecliptic)          AutoNEOCP
n   0.28114781 +/- 0.139            Peri.  156.84758 +/- 51
a   2.30770121 +/- 0.76             Node   247.28024 +/- 10
e   0.3666783 +/- 0.187             Incl.    5.43005 +/- 2.3
P   3.51                   H 22.4   G  0.15   U 11.4  SR
q 1.46151724 +/- 0.264    Q 3.15388518 +/- 34.2
From 5 observations 2019 Nov. 4-5 (22.0 hr); mean residual 0".21
Residuals in arcseconds: 
191104 F51  .24-  .06-    191104 F51  .07+  .01+    191105 691  .39+  .06-    
191104 F51  .18+  .05+    191105 691  .40-  .06+    

Ephemerides (geocentric):
Date (UTC) HH   RA              Dec         delta   r     elong  mag " sig PA
---- -- -- --  -------------   -----------  ------ ------ -----  --- ---- ---
2019 11 13 10  01 59 48.757   +18 46 51.12  .48655 1.4616 162.8 22.3  527  88
2019 11 13 11  01 59 49.089   +18 46 21.50  .48662 1.4616 162.8 22.3  532  88
2019 11 13 12  01 59 49.423   +18 45 51.89  .48670 1.4616 162.8 22.3  537  88
2019 11 13 13  01 59 49.761   +18 45 22.30  .48678 1.4616 162.7 22.3  542  88
2019 11 13 14  01 59 50.102   +18 44 52.71  .48686 1.4616 162.7 22.3  548  88
2019 11 13 15  01 59 50.446   +18 44 23.13  .48694 1.4616 162.7 22.3  553  88
2019 11 13 16  01 59 50.793   +18 43 53.56  .48702 1.4616 162.6 22.3  558  88
2019 11 13 17  01 59 51.143   +18 43 24.00  .48710 1.4616 162.6 22.3  563  88
2019 11 13 18  01 59 51.495   +18 42 54.45  .48718 1.4616 162.5 22.4  569  88
2019 11 13 19  01 59 51.851   +18 42 24.92  .48726 1.4616 162.5 22.4  574  88
2019 11 13 20  01 59 52.210   +18 41 55.39  .48734 1.4616 162.5 22.4  579  88
2019 11 13 21  01 59 52.572   +18 41 25.87  .48742 1.4616 162.4 22.4  585  87
2019 11 13 22  01 59 52.938   +18 40 56.36  .48750 1.4616 162.4 22.4  590  87
2019 11 13 23  01 59 53.306   +18 40 26.86  .48759 1.4616 162.3 22.4  596  87
2019 11 14 00  01 59 53.677   +18 39 57.38  .48767 1.4616 162.3 22.4  601  87
2019 11 14 01  01 59 54.051   +18 39 27.90  .48775 1.4616 162.3 22.4  607  87
2019 11 14 02  01 59 54.429   +18 38 58.43  .48783 1.4616 162.2 22.4  612  87
2019 11 14 03  01 59 54.809   +18 38 28.98  .48791 1.4616 162.2 22.4  618  87
2019 11 14 04  01 59 55.193   +18 37 59.53  .48800 1.4616 162.2 22.4  623  87
2019 11 14 05  01 59 55.579   +18 37 30.10  .48808 1.4617 162.1 22.4  629  87
2019 11 14 06  01 59 55.969   +18 37 00.67  .48816 1.4617 162.1 22.4  634  87
2019 11 14 07  01 59 56.362   +18 36 31.26  .48825 1.4617 162.0 22.4  640  87
2019 11 14 08  01 59 56.757   +18 36 01.86  .48833 1.4617 162.0 22.4  646  87
2019 11 14 09  01 59 57.156   +18 35 32.47  .48842 1.4617 162.0 22.4  651  87
2019 11 14 10  01 59 57.558   +18 35 03.09  .48850 1.4617 161.9 22.4  657  87
2019 11 14 11  01 59 57.963   +18 34 33.72  .48859 1.4617 161.9 22.4  663  87
2019 11 14 12  01 59 58.372   +18 34 04.37  .48867 1.4617 161.9 22.4  669  87
2019 11 14 13  01 59 58.783   +18 33 35.02  .48876 1.4617 161.8 22.4  674  87
2019 11 14 14  01 59 59.197   +18 33 05.69  .48884 1.4617 161.8 22.4  680  87
2019 11 14 15  01 59 59.615   +18 32 36.37  .48893 1.4617 161.7 22.4  686  87
2019 11 14 16  02 00 00.036   +18 32 07.06  .48901 1.4617 161.7 22.4  692  87
2019 11 14 17  02 00 00.460   +18 31 37.76  .48910 1.4617 161.7 22.4  698  87
2019 11 14 18  02 00 00.886   +18 31 08.47  .48919 1.4617 161.6 22.4  704  87
2019 11 14 19  02 00 01.317   +18 30 39.20  .48927 1.4617 161.6 22.4  710  87
2019 11 14 20  02 00 01.750   +18 30 09.94  .48936 1.4617 161.5 22.4  716  87
2019 11 14 21  02 00 02.186   +18 29 40.69  .48945 1.4617 161.5 22.4  722  87
2019 11 14 22  02 00 02.626   +18 29 11.45  .48954 1.4617 161.5 22.4  728  87
2019 11 14 23  02 00 03.068   +18 28 42.22  .48962 1.4618 161.4 22.4  734  87
2019 11 15 00  02 00 03.514   +18 28 13.01  .48971 1.4618 161.4 22.4  740  87
2019 11 15 01  02 00 03.963   +18 27 43.81  .48980 1.4618 161.4 22.4  746  87
2019 11 15 02  02 00 04.415   +18 27 14.62  .48989 1.4618 161.3 22.4  752  86
2019 11 15 03  02 00 04.870   +18 26 45.45  .48998 1.4618 161.3 22.4  758  86
2019 11 15 04  02 00 05.329   +18 26 16.28  .49007 1.4618 161.2 22.4  764  86
2019 11 15 05  02 00 05.790   +18 25 47.13  .49016 1.4618 161.2 22.4  770  86
2019 11 15 06  02 00 06.255   +18 25 18.00  .49025 1.4618 161.2 22.4  777  86
2019 11 15 07  02 00 06.723   +18 24 48.87  .49034 1.4618 161.1 22.4  783  86
2019 11 15 08  02 00 07.194   +18 24 19.76  .49043 1.4618 161.1 22.4  789  86
2019 11 15 09  02 00 07.668   +18 23 50.66  .49052 1.4618 161.0 22.4  795  86